Flag for Honduras Weather past 2 weeks in Choloma, Honduras

Now
70 °F

More clouds than sun.


Feels Like: 70 °F
Forecast: 67 / 70 °F
Wind: 5 mph from Northeast

Location: La Mesa San Pedro Sula

Current Time: Jan 25, 2015 at 1:05:55 PM

Latest Report: Jan 25, 2015 at 12:00 PM


Visibility: N/A

Pressure: 30.07 "Hg

Humidity: 100%

Dew point: 70 °F

Location of CholomaLocation

Historic Weather in Choloma — Graph

°F

Choloma temperature yesterday

Maximum temperature yesterday: 84 °F (at 2:00 PM)
Minimum temperature yesterday: 70 °F (at 1:00 AM)
Average temperature yesterday: 75 °F

Past Weeks' High & Low Weather Summary

 TemperatureHumidityPressure
High91 °F (Jan 23, 3:00 PM)100% (Jan 10, 9:00 PM)30.18 "Hg (Jan 10, 9:00 PM)
Low63 °F (Jan 17, 4:00 AM)46% (Jan 23, 3:00 PM)29.83 "Hg (Jan 23, 3:00 PM)
Average75 °F92%30.02 "Hg
* Reported Jan 10 12:00 Noon — Jan 25 12:00 Noon, Choloma, Weather by CustomWeather, © 2014

Note: Actual official high and low records may vary slightly from our data, if they occured in-between our weather recording intervals... More about our weather records

Advertising

Choloma weather history for previous 24 hours

 ConditionsComfort  
Time TempWeatherWind HumidityBarometerVisibility
12:00 PM
Jan 25
70 °FMore clouds than sun.5 mph100%30.07 "HgN/A
11:00 AM72 °FMore clouds than sun.5 mph88%30.09 "HgN/A
10:00 AM70 °FMore clouds than sun.6 mph94%30.09 "HgN/A
9:00 AM70 °FMore clouds than sun.5 mph94%30.09 "HgN/A
8:00 AM70 °FMore clouds than sun.2 mph94%30.07 "HgN/A
7:00 AM70 °FMore clouds than sun.5 mph94%30.07 "HgN/A
6:00 AM70 °FPassing clouds.8 mph88%30.04 "HgN/A
5:00 AM70 °FPartly cloudy.9 mph88%30.04 "HgN/A
4:00 AM72 °FPartly cloudy.14 mph88%30.01 "HgN/A
3:00 AM73 °FPartly cloudy.9 mph78%30.01 "HgN/A
2:00 AM73 °FPartly cloudy.7 mph83%30.01 "HgN/A
1:00 AM73 °FPartly cloudy.13 mph89%30.01 "HgN/A
12:00 AM73 °FPartly cloudy.10 mph94%30.04 "HgN/A
11:00 PM
Jan 24
73 °FPartly cloudy.No wind94%30.04 "HgN/A
10:00 PM73 °FPassing clouds.No wind100%30.07 "HgN/A
9:00 PM73 °FPassing clouds.3 mph100%30.07 "HgN/A
8:00 PM73 °FPartly cloudy.No wind100%30.07 "HgN/A
7:00 PM73 °FPartly cloudy.No wind100%30.04 "HgN/A
6:00 PM75 °FPartly cloudy.12 mph100%30.01 "HgN/A
5:00 PM75 °FScattered showers. Broken clouds.14 mph100%30.01 "Hg5 mi
4:00 PM77 °FScattered showers. Partly sunny.14 mph94%29.98 "Hg4 mi
3:00 PM81 °FPartly sunny.21 mph79%29.95 "HgN/A
2:00 PM84 °FScattered clouds.18 mph74%29.98 "HgN/A
1:00 PM82 °FBroken clouds.18 mph74%30.01 "HgN/A
Weather by CustomWeather, © 2014

See weather overviewHow to use our weather pages